CZ-6A DEB, 54456

Orbit data source: Space-Track

CZ-6A DEB, 54456 is space debris in SSO originally from a launch on Fri, 11 Nov 2022 UTC launched from the Taiyaun Space Center, China (TSC). Debris objects in space refer to the collection of defunct objects orbiting the Earth. Examples of debris include non-operational satellites, rocket bodies, and fragments generated from explosions, collisions, or faulty payload assembly.

Loading next visibility...
Identifier
54456, 2022-151GG
Orbit
SSO
Country
Flag of CNCN / PRC
Related business
Manufacturer
SAST
Mission
Spacecraft
Bus & Motor
Unknown
Mass
Unknown
Launch date (UTC)
2022-11-11 (4 years ago)
Launch vehicle
Unknown
Launch site
Taiyaun Space Center, China (TSC)
Object type
Payload
Rocket body
Debris
Shape & HBR
Unknown shape, 0.3 m
Radar Cross Section
Medium (>0.1 m² and <1 m²)

Expand to show TLE details & history
Last TLE update: 19 hours ago

TLE from 19 hours ago
0 CZ-6A DEB
1 54456U 22151GG  26236.15408282  .00000978  00000-0  35292-3 0  9992
2 54456  98.9782 313.6896 0111296 296.4506  62.5292 14.32652458196908
Epoch: 2026-08-24T03:41Z
TLE epoch observation values (Epoch: 2026-08-24T03:41:52.755Z)
Latitude
-0.00008°
Longitude
-74.22006°
Altitude
749.733 km
Speed
7.499 km/s
True Right ascension
20h 54m 45s
True Declination
0° 00' 00"
Sunlit
Object was in full shadow at epoch
Visualization orbit readout
Latitude
Unknown
Longitude
Unknown
Altitude
Unknown
Speed
Unknown
Apparent Right ascension
Unknown
Apparent Declination
Unknown
Sunlit
N/A
Visualization observer readout
Local Sidereal Time
13:31:18
Azimuth
Unknown
Elevation
Unknown
Doppler factor
Unknown
Orbital elements
Apogee altitude
859.7 km
Perigee altitude
700.365 km
Semi-major axis
7,158.17 km
Eccentricity
0.01113
Inclination
98.9782°
RAAN
313.6896°
Arg. of periapsis
296.4506°
True anomaly
63.66799°
Mean anomaly
62.5292°
Eccentric anomaly
63.09787°
Mean motion
3.58377 °/min
Orbital period
100.45 mins
BSTAR
0.00035292
Loading maneuver chart data...
Computing Atmospheric mass density...
Loading historical data...
Loading historical data...
Loading historical data...
Loading historical data...
Loading historical data...
Loading historical data...
Loading historical data...

Documentation

Showing up to 5 results
|